SCP
0 0 0 0 0 0 0 0 0 0 0 0 0 0 0 0 0 0 0 0 0 0 0 0 0 0 0 0 0 0 0 0 0 0 0 0 0 0
0 0 0 0 0 0 0 0 0 0 0 0 0 0 0 0 0 0 0 0 0 0 0 0 0 0 0 0 0 0 0 0 0 0 0 0 0 0
0 0 0 0 0 0 0 0 0 0 0 0 0 0 0 0 0 0 0 0 0 0 0 0 0 0 0 0 0 0 0 0 0 0 0 0 0 0
0 0 0 0 0 0 0 0 0 0 0 0 0 0 0 0 0 0 0 0 0 0 0 0 0 0 0 0 0 0 0 0 0 0 0 0 0 0
0 0 0 0 0 0 0 0 0 0 0 0 0 0 0 0 0 0 0 0 0 0 0 0 0 0 0 0 0 0 0 0 0 0 0 0 0 0
0 0 0 0 0 0 0 0 0 0 0 0 0 0 0 0 0 0 0 0 0 0 0 0 0 0 0 0 0 0 0 0 0 0 0 0 0 0
0 0 0 0 0 0 0 0 0 0 0 0 0 0 0 0 0 0 0 0 0 0 0 0 0 0 0 0 0 0 0 0 0 0 0 0 0 0
0 0 0 0 0 0 0 0 0 0 0 0 0 0 0 0 0 0 0 0 0 0 0 0 0 0 0 0 0 0 0 0 0 0 0 0 0 0
0 0 0 0 0 0 0 0 0 0 0 0 0 0 0 0 0 0 0 0 0 0 0 0 0 0 0 0 0 0 0 0 0 0 0 0 0 0
0 0 0 0 0 0 0 0 0 0 0 0 0 0 0 0 0 0 0 0 0 0 0 0 0 0 0 0 0 0 0 0 0 0 0 0 0 0
0 0 0 0 0 0 0 0 0 0 0 0 0 0 0 0 0 0 0 0 0 0 0 0 0 0 0 0 0 0 0 0 0 0 0 0 0 0
0 0 0 0 0 0 0 0 0 0 0 0 0 0 0 0 0 0 0 0 0 0 0 0 0 0 0 0 0 0 0 0 0 0 0 0 0 0
0 0 0 0 0 0 0 0 0 0 0 0 0 0 0 0 0 0 0 0 0 0 0 0 0 0 0 0 0 0 0 0 0 0 0 0 0 0
0 0 0 0 0 0 0 0 0 0 0 0 0 0 0 0 0 0 0 0 0 0 0 0 0 0 0 0 0 0 0 0 0 0 0 0 0 0
0 0 0 0 0 0 0 0 0 0 0 0 0 0 0 0 0 0 0 0 0 0 0 0 0 0 0 0 0 0 0 0 0 0 0 0 0 0
0 0 0 0 0 0 0 0 0 0 0 0 0 0 0 0 0 0 0 0 0 0 0 0 0 0 0 0 0 0 0 0 0 0 0 0 0 0
0 0 0 0 0 0 0 0 0 0 0 0 0 0 0 0 0 0 0 0 0 0 0 0 0 0 0 0 0 0 0 0 0 0 0 0 0 0
0 0 0 0 0 0 0 0 0 0 0 0 0 0 0 0 0 0 0 0 0 0 0 0 0 0 0 0 0 0 0 0 0 0 0 0 0 0
0 0 0 0 0 0 0 0 0 0 0 0 0 0 0 0 0 0 0 0 0 0 0 0 0 0 0 0 0 0 0 0 0 0 0 0 0 0
0 0 0 0 0 0 0 0 0 0 0 0 0 0 0 0 0 0 0 0 0 0 0 0 0 0 0 0 0 0 0 0 0 0 0 0 0 0
0 0 0 0 0 0 0 0 0 0 0 0 0 0 0 0 0 0 0 0 0 0 0 0 0 0 0 0 0 0 0 0 0 0 0 0 0 0
0 0 0 0 0 0 0 0 0 0 0 0 0 0 0 0 0 0 0 0 0 0 0 0 0 0 0 0 0 0 0 0 0 0 0 0 0 0
0 0 0 0 0 0 0 0 0 0 0 0 0 0 0 0 0 0 0 0 0 0 0 0 0 0 0 0 0 0 0 0 0 0 0 0 0 0
Wind_Speed
4 5 4 3 3 3 3 4 3 3 3 3 2 2 3 2 3 3 3 6 6 5 4 4 3 3 3 3 3 3 3 3 3 3 4 4 5 6
3 3 4 3 2 3 3 4 4 4 3 1 2 2 2 3 3 3 2 7 7 6 5 4 3 2 2 2 2 3 3 3 3 4 4 4 5 6
4 4 4 3 3 3 3 3 3 3 3 2 2 2 2 2 2 3 3 3 4 7 5 4 4 3 2 2 2 2 3 3 4 4 5 5 6 6
4 4 4 3 3 4 3 3 3 3 4 3 2 3 3 3 2 3 3 2 2 6 6 5 4 4 3 3 3 3 3 4 4 5 6 6 6 7
4 4 4 4 4 3 3 3 3 3 3 3 3 2 2 3 2 2 2 1 2 4 6 6 5 5 5 4 4 4 4 4 4 5 6 6 6 7
3 3 3 3 3 3 3 3 3 2 3 3 3 3 2 3 2 2 2 2 2 1 1 3 4 6 6 5 5 5 5 5 5 5 5 6 6 7
2 2 1 1 2 0 1 2 3 3 3 3 3 3 2 2 2 2 2 2 2 2 2 2 3 3 4 6 6 5 5 5 5 5 5 5 6 6
2 2 2 4 4 3 2 2 1 3 3 3 3 2 2 2 2 3 3 3 2 1 3 2 2 3 2 2 2 4 5 5 5 6 6 6 6 6
1 1 1 2 3 3 3 3 0 1 1 3 2 2 2 2 2 4 3 3 3 2 3 3 2 3 2 1 4 4 4 5 5 6 6 6 6 6
2 2 1 1 1 0 1 2 2 2 2 3 3 3 2 2 3 3 3 3 3 3 3 4 3 3 3 2 4 5 5 5 5 5 6 6 7 6
2 2 2 2 3 1 2 2 2 2 2 2 0 1 1 2 3 4 4 4 3 3 2 3 3 3 3 3 4 7 6 6 6 6 7 7 8 8
3 3 2 1 3 1 3 2 2 2 2 3 4 4 5 4 5 5 5 4 3 3 1 3 3 3 3 3 3 3 5 7 8 8 8 7 7 7
3 2 3 4 3 2 3 2 1 2 3 3 4 4 4 3 4 4 4 4 4 3 1 3 4 4 4 4 3 3 3 3 4 5 7 8 7 6
2 2 3 6 4 2 2 0 1 3 3 3 2 2 2 2 2 2 2 3 3 4 4 4 4 4 5 4 4 3 3 4 4 4 4 5 8 9
1 3 4 6 5 4 4 3 4 3 2 2 2 1 1 1 2 2 3 3 4 4 4 4 5 4 5 5 4 4 4 4 4 4 4 4 4 4
3 5 6 5 4 2 3 4 3 2 2 2 2 1 1 1 2 3 3 3 4 3 3 4 4 5 5 5 5 5 4 4 4 4 4 5 5 5
2 3 3 3 3 3 3 2 2 3 3 2 2 2 2 2 2 2 3 3 3 3 3 3 4 4 5 6 5 5 5 5 4 4 5 6 5 5
3 3 3 2 2 2 2 2 2 2 2 2 2 2 2 2 2 2 3 3 3 3 3 3 3 4 5 4 4 6 5 5 4 4 6 6 6 5
4 3 2 2 2 2 2 2 2 2 2 2 2 3 3 3 2 2 3 3 3 3 3 3 3 4 5 5 3 4 5 5 5 5 5 6 6 5
4 3 2 2 2 2 2 2 2 2 2 2 3 3 3 3 3 3 3 4 4 4 4 3 3 4 5 6 5 3 5 5 5 6 6 6 5 5
4 3 3 2 2 2 2 1 2 1 2 2 2 3 3 3 3 3 3 3 5 5 4 3 2 4 5 5 6 4 2 4 5 6 7 7 6 6
3 3 2 2 2 2 2 2 2 2 2 2 2 2 3 3 3 5 4 4 4 4 5 3 2 4 5 6 6 5 4 4 4 6 7 6 6 7
2 2 2 2 2 2 2 2 3 2 2 2 3 3 3 4 4 4 5 5 5 5 5 4 3 4 5 5 6 6 6 6 5 4 4 6 8 9
Wind_Direction
230 221 235 230 238 246 242 246 250 245 231 195 199 193 205 193 167 199 186 149 166 172 177 186 195 201 210 210 213 225 227 234 241 245 246 252 254 256
233 235 240 235 227 234 241 245 249 256 261 197 202 186 192 197 165 203 175 157 174 171 168 173 179 186 193 204 218 227 228 231 239 247 251 254 256 259
226 218 225 247 235 232 232 236 236 236 239 220 189 161 178 218 171 192 188 197 161 157 159 164 170 173 183 198 218 227 228 235 246 255 260 259 261 262
226 222 220 221 225 240 234 234 232 231 229 212 193 181 187 200 188 204 202 196 188 149 163 174 179 185 198 213 228 236 238 239 247 255 259 262 264 265
224 222 221 221 224 224 231 230 224 215 215 213 206 182 193 187 184 203 209 203 226 160 171 183 187 195 205 216 227 232 234 241 248 254 260 262 263 266
221 227 231 223 217 210 212 221 226 224 208 215 204 192 187 179 203 205 204 206 238 225 193 191 183 198 205 209 217 223 229 237 242 249 255 260 262 265
203 210 208 137 58 344 251 211 213 223 212 207 206 199 189 182 211 223 221 226 228 240 242 226 215 227 212 203 210 222 228 234 238 245 253 257 259 263
188 196 184 167 138 120 61 35 331 238 224 220 220 211 210 220 219 233 230 239 244 213 256 257 253 255 247 238 185 202 219 229 237 245 251 255 256 257
168 199 227 140 172 174 156 161 180 338 300 265 244 246 230 233 235 237 236 258 276 267 263 268 256 264 262 171 152 195 217 231 242 249 254 256 255 253
168 177 174 132 93 32 191 186 201 202 215 223 240 253 252 252 246 252 247 238 245 237 244 267 261 261 267 239 168 197 213 226 239 249 251 254 252 248
171 160 171 174 91 9 205 198 197 185 129 112 38 285 347 271 255 242 236 240 248 236 232 271 274 269 254 240 195 190 204 217 227 236 241 247 248 243
165 159 133 141 126 224 220 199 198 203 195 178 191 205 213 211 222 244 255 256 262 257 224 263 269 272 264 238 230 213 216 215 217 222 229 239 250 253
174 177 144 138 153 211 253 235 233 261 236 221 208 202 203 205 210 218 248 272 277 277 270 258 273 272 268 266 253 248 248 248 234 227 220 222 229 249
195 179 130 145 164 200 228 211 241 250 237 230 219 203 199 209 222 237 242 264 276 282 288 280 275 278 275 274 274 264 256 257 258 259 250 206 214 223
153 95 122 159 178 190 197 218 231 234 237 236 235 229 218 208 216 216 220 228 239 246 251 256 263 274 272 271 277 277 273 266 262 264 262 257 256 242
177 144 161 177 200 197 183 198 220 239 257 255 256 245 231 223 233 230 230 230 236 231 227 239 248 263 263 266 270 275 277 276 272 271 278 275 267 261
175 174 182 174 186 190 197 202 208 207 216 229 236 240 233 234 246 252 252 248 253 256 237 226 228 239 257 269 266 271 275 275 275 285 279 274 270 272
201 198 199 204 211 207 209 206 212 217 223 226 234 245 250 248 246 250 254 256 261 266 269 262 256 247 242 237 257 274 277 281 285 277 274 278 280 279
206 210 207 209 220 223 221 221 219 207 231 241 247 250 254 257 258 258 258 262 266 268 267 265 263 268 273 271 234 238 283 290 288 280 276 280 284 290
216 220 218 218 220 225 225 223 220 210 221 232 240 251 255 260 266 269 270 278 278 276 271 270 270 279 286 293 291 263 239 281 292 291 289 283 280 274
209 215 222 223 225 224 227 223 226 230 245 252 247 262 264 268 274 275 270 268 274 276 278 280 296 273 276 278 275 274 256 235 273 286 292 288 287 282
217 221 221 224 228 234 224 225 226 227 238 251 260 264 266 268 268 273 277 270 267 275 284 290 269 261 268 274 280 285 284 269 241 242 259 271 292 298
212 230 231 225 228 237 240 236 239 243 250 265 269 267 268 270 272 270 270 273 275 279 282 289 284 273 279 282 284 291 292 289 278 262 250 221 229 245